Location: Te Maire Creek
(41.1333°S, 175.9167°E)
Time: 21:51:34
(UTC+00:00)

Cosmos 1867 - Pass Details

Date: 19 May 2024
Orbit: 772 x 802 km, 65.0° (Epoch: 22 June)

Event Time Altitude Azimuth Distance (km) Brightness Sun altitude
Exits shadow 17:38:29 14° 201° (SSW) 2,088 5.5 -19.3°
Maximum altitude 17:43:00 50° 127° (SE) 989 4.3 -18.5°
Drops below altitude 10° 17:48:13 10° 52° (NE) 2,334 7.0 -17.5°
Sets 17:50:41 0° 46° (NE) 3,259 7.8 -17.1°
